When you browse on this site, cookies collect data to enhance your experience and personalize the content and advertising you see.
Visit our Privacy Policy to learn more. By continuing to use the site, you agree to this use of cookies and data.
  • In Latvia
  • List of Countries
  • For 7 days
  • Water Temperature
  • Satellite Maps
  • Weather Map
  • Weather Widgets
  • user-avatar
    Login

    Hourly Weather Crete

    Today, 19 December, Wednesday

    Time Temperature Precipitation Wind Pressure Humidity
    00:00 +9°C° 0.3 mm 7 mps 707 mmHg 75%
    01:00 +9°C° 0.3 mm 7 mps 707 mmHg 76%
    02:00 +9°C° 0 mm 6 mps 707 mmHg 76%
    03:00 +9°C° 0.3 mm 6 mps 707 mmHg 76%
    04:00 +8°C° 0.3 mm 7 mps 707 mmHg 76%
    05:00 +8°C° 0.3 mm 7 mps 708 mmHg 76%
    06:00 +8°C° 0.2 mm 7 mps 708 mmHg 76%
    07:00 +8°C° 0.2 mm 7 mps 708 mmHg 76%
    08:00 +6°C° 0.2 mm 7 mps 709 mmHg 76%
    09:00 +7°C° 0.2 mm 8 mps 709 mmHg 74%
    10:00 +7°C° 0.2 mm 8 mps 709 mmHg 72%
    11:00 +7°C° 0.2 mm 8 mps 710 mmHg 69%
    12:00 +7°C° 0.3 mm 9 mps 710 mmHg 68%
    13:00 +7°C° 0.3 mm 9 mps 710 mmHg 66%
    14:00 +7°C° 0.3 mm 9 mps 710 mmHg 65%
    15:00 +7°C° 0.2 mm 9 mps 711 mmHg 66%
    16:00 +7°C° 0.2 mm 9 mps 711 mmHg 68%
    17:00 +6°C° 0.2 mm 9 mps 711 mmHg 69%
    18:00 +6°C° 0.1 mm 9 mps 711 mmHg 70%
    19:00 +6°C° 0.1 mm 9 mps 712 mmHg 71%
    20:00 +6°C° 0.1 mm 9 mps 712 mmHg 71%
    21:00 +6°C° 0 mm 9 mps 712 mmHg 71%
    22:00 +6°C° 0 mm 8 mps 713 mmHg 70%
    23:00 +6°C° 0 mm 8 mps 713 mmHg 70%

    Tomorrow, 20 December, Thursday

    Time Temperature Precipitation Wind Pressure Humidity
    00:00 +6°C° 0 mm 8 mps 713 mmHg 71%
    01:00 +5°C° 0 mm 8 mps 713 mmHg 72%
    02:00 +5°C° 0 mm 7 mps 713 mmHg 73%
    03:00 +5°C° 0 mm 7 mps 713 mmHg 73%
    04:00 +5°C° 0 mm 7 mps 713 mmHg 73%
    05:00 +5°C° 0 mm 7 mps 713 mmHg 73%
    06:00 +5°C° 0 mm 7 mps 714 mmHg 73%
    07:00 +5°C° 0 mm 6 mps 714 mmHg 74%
    08:00 +5°C° 0 mm 6 mps 714 mmHg 74%
    09:00 +7°C° 0 mm 6 mps 715 mmHg 70%
    10:00 +8°C° 0 mm 6 mps 715 mmHg 65%
    11:00 +9°C° 0 mm 5 mps 715 mmHg 61%
    12:00 +9°C° 0 mm 5 mps 715 mmHg 60%
    13:00 +10°C° 0 mm 5 mps 715 mmHg 59%
    14:00 +10°C° 0 mm 5 mps 715 mmHg 57%
    15:00 +9°C° 0 mm 5 mps 715 mmHg 60%
    16:00 +10°C° 0 mm 4 mps 715 mmHg 63%
    17:00 +8°C° 0 mm 4 mps 715 mmHg 66%
    18:00 +8°C° 0 mm 4 mps 715 mmHg 69%
    19:00 +7°C° 0 mm 4 mps 715 mmHg 72%
    20:00 +6°C° 0 mm 4 mps 715 mmHg 74%
    21:00 +7°C° 0 mm 3 mps 716 mmHg 75%
    22:00 +7°C° 0 mm 3 mps 716 mmHg 76%
    23:00 +7°C° 0 mm 3 mps 716 mmHg 76%

    Day after tomorrow, 21 December, Friday

    Time Temperature Precipitation Wind Pressure Humidity
    00:00 +7°C° 0 mm 3 mps 716 mmHg 76%
    01:00 +7°C° 0 mm 3 mps 716 mmHg 77%
    02:00 +7°C° 0 mm 3 mps 716 mmHg 77%
    03:00 +7°C° 0 mm 3 mps 716 mmHg 77%
    04:00 +7°C° 0 mm 3 mps 715 mmHg 77%
    05:00 +7°C° 0 mm 3 mps 715 mmHg 77%
    06:00 +7°C° 0 mm 3 mps 716 mmHg 77%
    07:00 +7°C° 0 mm 2 mps 716 mmHg 78%
    08:00 +7°C° 0 mm 2 mps 716 mmHg 78%
    09:00 +8°C° 0 mm 2 mps 716 mmHg 70%
    10:00 +10°C° 0 mm 2 mps 717 mmHg 63%
    11:00 +12°C° 0 mm 2 mps 717 mmHg 55%
    12:00 +13°C° 0 mm 2 mps 717 mmHg 53%
    13:00 +13°C° 0 mm 2 mps 716 mmHg 51%
    14:00 +14°C° 0 mm 2 mps 716 mmHg 48%
    15:00 +13°C° 0 mm 2 mps 716 mmHg 53%
    16:00 +12°C° 0 mm 2 mps 716 mmHg 58%
    17:00 +10°C° 0 mm 2 mps 716 mmHg 62%
    18:00 +10°C° 0 mm 2 mps 716 mmHg 66%
    19:00 +10°C° 0 mm 3 mps 716 mmHg 69%
    20:00 +9°C° 0 mm 3 mps 716 mmHg 73%
    21:00 +9°C° 0 mm 3 mps 716 mmHg 75%
    22:00 +9°C° 0 mm 3 mps 716 mmHg 77%
    23:00 +8°C° 0 mm 3 mps 716 mmHg 79%

    22 December, Saturday

    Time Temperature Precipitation Wind Pressure Humidity
    00:00 +8°C° 0 mm 3 mps 716 mmHg 80%
    01:00 +8°C° 0 mm 3 mps 716 mmHg 82%
    02:00 +8°C° 0 mm 2 mps 716 mmHg 83%
    03:00 +8°C° 0 mm 3 mps 715 mmHg 83%
    04:00 +8°C° 0 mm 3 mps 715 mmHg 83%
    05:00 +8°C° 0 mm 3 mps 715 mmHg 83%
    06:00 +8°C° 0 mm 2 mps 715 mmHg 83%
    07:00 +8°C° 0 mm 2 mps 715 mmHg 83%
    08:00 +8°C° 0 mm 2 mps 715 mmHg 83%
    09:00 +10°C° 0 mm 2 mps 715 mmHg 75%
    10:00 +12°C° 0 mm 2 mps 715 mmHg 67%
    11:00 +14°C° 0 mm 1 mps 716 mmHg 58%
    12:00 +14°C° 0 mm 2 mps 715 mmHg 59%
    13:00 +15°C° 0 mm 2 mps 715 mmHg 59%
    14:00 +14°C° 0 mm 3 mps 714 mmHg 59%
    15:00 +13°C° 0 mm 3 mps 714 mmHg 64%
    16:00 +13°C° 0 mm 3 mps 714 mmHg 69%
    17:00 +12°C° 0 mm 3 mps 714 mmHg 74%
    18:00 +12°C° 0 mm 3 mps 714 mmHg 76%
    19:00 +11°C° 0 mm 3 mps 714 mmHg 79%
    20:00 +10°C° 0 mm 3 mps 714 mmHg 81%
    21:00 +10°C° 0 mm 3 mps 714 mmHg 82%
    22:00 +10°C° 0 mm 3 mps 714 mmHg 83%
    23:00 +10°C° 0 mm 3 mps 714 mmHg 84%

    23 December, Sunday

    Time Temperature Precipitation Wind Pressure Humidity
    00:00 +10°C° 0 mm 4 mps 714 mmHg 84%
    01:00 +8°C° 0 mm 4 mps 714 mmHg 84%
    02:00 +8°C° 0 mm 4 mps 713 mmHg 84%
    03:00 +8°C° 0 mm 4 mps 713 mmHg 84%
    04:00 +8°C° 0 mm 4 mps 713 mmHg 84%
    05:00 +8°C° 0 mm 4 mps 713 mmHg 84%
    06:00 +8°C° 0 mm 4 mps 713 mmHg 83%
    07:00 +8°C° 0 mm 4 mps 713 mmHg 83%
    08:00 +9°C° 0 mm 3 mps 713 mmHg 82%
    09:00 +10°C° 0 mm 3 mps 714 mmHg 78%
    10:00 +11°C° 0 mm 3 mps 714 mmHg 73%
    11:00 +13°C° 0 mm 3 mps 714 mmHg 68%
    12:00 +13°C° 0 mm 4 mps 714 mmHg 68%
    13:00 +13°C° 0 mm 4 mps 714 mmHg 68%
    14:00 +13°C° 0 mm 4 mps 713 mmHg 68%
    15:00 +13°C° 0 mm 3 mps 713 mmHg 70%
    16:00 +13°C° 0 mm 3 mps 713 mmHg 71%
    17:00 +13°C° 0 mm 3 mps 713 mmHg 73%
    18:00 +12°C° 0 mm 3 mps 713 mmHg 76%
    19:00 +11°C° 0 mm 3 mps 713 mmHg 79%
    20:00 +10°C° 0 mm 2 mps 713 mmHg 82%
    21:00 +10°C° 0 mm 2 mps 713 mmHg 83%
    22:00 +10°C° 0 mm 2 mps 713 mmHg 84%
    23:00 +9°C° 0 mm 2 mps 713 mmHg 85%

    24 December, Monday

    Time Temperature Precipitation Wind Pressure Humidity
    00:00 +9°C° 0 mm 2 mps 713 mmHg 86%
    01:00 +9°C° 0 mm 2 mps 713 mmHg 86%
    02:00 +9°C° 0 mm 2 mps 712 mmHg 86%
    03:00 +9°C° 0 mm 2 mps 712 mmHg 86%
    04:00 +9°C° 0 mm 2 mps 712 mmHg 87%
    05:00 +9°C° 0 mm 2 mps 712 mmHg 87%
    06:00 +10°C° 0 mm 2 mps 712 mmHg 86%
    07:00 +10°C° 0 mm 2 mps 712 mmHg 86%
    08:00 +10°C° 0 mm 2 mps 712 mmHg 86%
    09:00 +12°C° 0 mm 2 mps 712 mmHg 81%
    10:00 +12°C° 0 mm 3 mps 712 mmHg 75%
    11:00 +13°C° 0 mm 3 mps 712 mmHg 70%
    12:00 +13°C° 0 mm 3 mps 712 mmHg 71%
    13:00 +13°C° 0 mm 3 mps 711 mmHg 71%
    14:00 +13°C° 0 mm 4 mps 711 mmHg 71%
    15:00 +13°C° 0 mm 4 mps 710 mmHg 73%
    16:00 +12°C° 0 mm 4 mps 710 mmHg 75%
    17:00 +12°C° 0 mm 4 mps 710 mmHg 77%
    18:00 +12°C° 0 mm 4 mps 710 mmHg 78%
    19:00 +12°C° 0 mm 4 mps 710 mmHg 79%
    20:00 +12°C° 0 mm 4 mps 710 mmHg 80%
    21:00 +12°C° 0 mm 4 mps 710 mmHg 81%
    22:00 +12°C° 0 mm 4 mps 710 mmHg 83%
    23:00 +12°C° 0 mm 5 mps 710 mmHg 84%
    Show more